Location: Molino di Ancona
(43.6167°N, 13.3667°E)
Time: 00:25:11
(UTC+00:00)

Cosmos 2278 Rocket - Pass Details

Date: 15 December 2019
Orbit: 843 x 844 km, 71.0° (Epoch: 26 January)

Event Time Altitude Azimuth Distance (km) Brightness Sun altitude
Rises 05:16:52 0° 182° (S) 3,386 5.6 -13.1°
Reaches altitude 10° 05:19:25 10° 175° (S) 2,455 5.0 -12.7°
Maximum altitude 05:24:39 41° 106° (ESE) 1,204 3.7 -11.8°
Drops below altitude 10° 05:29:55 10° 38° (NE) 2,470 4.8 -10.9°
Sets 05:32:29 0° 32° (NNE) 3,409 5.5 -10.5°
